This is the latest recevied weather packets stored in our database for station/object W3BRL. If no packets are shown the sender has not sent any weather packets the latest 10 day(s).
| Time | Temp. | Humidity | Pressure | Rain* | Wind** | Luminosity | Snow |
|---|---|---|---|---|---|---|---|
| 1777561502 | 6.67° C | 91% | 1009.9 hPa | 0 mm | - | 84 W/m² | - |
| 1777561197 | 6.67° C | 91% | 1009.5 hPa | 0 mm | - | 78 W/m² | - |
| 1777560891 | 6.67° C | 91% | 1009.5 hPa | 0 mm | - | 96 W/m² | - |
| 1777560589 | 6.67° C | 91% | 1009.2 hPa | 0 mm | - | 100 W/m² | - |
| 1777560287 | 6.67° C | 91% | 1009.4 hPa | 0 mm | - | 124 W/m² | - |
| 1777559985 | 7.22° C | 90% | 1009.3 hPa | 0 mm | - | 168 W/m² | - |
| 1777559684 | 7.22° C | 92% | 1009.2 hPa | 0 mm | - | 331 W/m² | - |
| 1777559383 | 7.22° C | 92% | 1009.1 hPa | 0 mm | - | 126 W/m² | - |
| 1777559078 | 7.22° C | 92% | 1009.1 hPa | 0 mm | - | 85 W/m² | - |
| 1777558773 | 7.22° C | 92% | 1008.9 hPa | 0 mm | - | 109 W/m² | - |
| 1777558470 | 6.67° C | 92% | 1009 hPa | 0 mm | - | 197 W/m² | - |
| 1777558166 | 7.22° C | 92% | 1008.5 hPa | 0 mm | - | 129 W/m² | - |
| 1777557862 | 7.22° C | 92% | 1008.6 hPa | 0 mm | - | 109 W/m² | - |
| 1777557560 | 7.22° C | 92% | 1008.6 hPa | 0 mm | - | 101 W/m² | - |
| 1777557256 | 7.22° C | 93% | 1008.4 hPa | 0 mm | - | 135 W/m² | - |
| 1777556952 | 7.22° C | 93% | 1008.4 hPa | 0 mm | - | 113 W/m² | - |
| 1777556647 | 7.78° C | 93% | 1008.4 hPa | 0 mm | - | 96 W/m² | - |
| 1777556342 | 7.78° C | 93% | 1008.4 hPa | 0 mm | - | 139 W/m² | - |
| 1777556039 | 7.78° C | 93% | 1008.4 hPa | 1.78 mm | - | 181 W/m² | - |
| 1777555733 | 7.78° C | 93% | 1008 hPa | 1.78 mm | - | 201 W/m² | - |
| 1777555430 | 7.78° C | 93% | 1008.3 hPa | 0 mm | - | 68 W/m² | - |
| 1777555126 | 7.78° C | 92% | 1008 hPa | 0 mm | - | 116 W/m² | - |
| 1777554824 | 7.78° C | 92% | 1008 hPa | 0 mm | - | 78 W/m² | - |
| 1777554521 | 7.78° C | 91% | 1007.8 hPa | 1.27 mm | - | 135 W/m² | - |
| 1777554218 | 8.33° C | 91% | 1008.1 hPa | 1.27 mm | - | 150 W/m² | - |
* Rain latest hour (hover to see other rain measurements)
** Current wind speed in m/s (hover to see current wind gust speed)